EW1090 Weather Reports


Display with metric or nautical units.
time (UTC)temp
F
wind
direction
speed
MPH
gust
MPH
rain 1hr
in
rain 24hr
in
rain mn
in
humidity
%
barometer
mb
20260507192804 74 17 0.0 0.0 0.00 0.01 0.00 78 1013.2
20260507192320 74 17 0.0 0.0 0.00 0.01 0.00 78 1013.3
20260507191835 74 15 0.0 3.0 0.00 0.01 0.00 78 1013.3
20260507191330 74 295 0.0 3.0 0.00 0.01 0.00 78 1013.4
20260507190806 74 334 0.0 0.0 0.00 0.01 0.00 77 1013.5
20260507190303 74 360 0.0 0.0 0.00 0.01 0.00 77 1013.4
20260507185820 74 311 0.0 2.0 0.00 0.01 0.00 77 1013.4
20260507185333 74 311 0.0 2.0 0.00 0.01 0.00 77 1013.5
20260507184808 75 27 0.0 1.0 0.00 0.01 0.00 77 1013.4
20260507184323 75 32 0.0 2.0 0.00 0.01 0.00 76 1013.5
20260507183841 75 32 0.0 3.0 0.00 0.01 0.00 77 1013.7
20260507183317 75 34 0.0 1.0 0.00 0.01 0.00 78 1013.6
20260507182833 75 313 0.0 2.0 0.00 0.01 0.00 78 1013.6
20260507182308 74 312 0.0 3.0 0.00 0.01 0.00 78 1013.8
20260507181805 74 294 0.0 5.0 0.00 0.01 0.00 78 1013.9
20260507181321 75 355 1.0 5.0 0.00 0.01 0.00 78 1014.0
20260507180815 75 279 1.0 4.0 0.00 0.01 0.00 79 1014.1
20260507180310 74 321 1.0 4.0 0.00 0.01 0.00 80 1014.0
20260507175806 73 329 1.0 3.0 0.00 0.01 0.00 81 1014.1
20260507175306 73 294 0.0 3.0 0.00 0.01 0.00 84 1014.1
20260507174844 72 43 0.0 4.0 0.00 0.01 0.00 86 1014.1
20260507174340 71 298 1.0 4.0 0.00 0.01 0.00 85 1014.1
20260507173814 71 279 1.0 4.0 0.00 0.01 0.00 86 1014.0
20260507173310 71 328 0.0 3.0 0.00 0.01 0.00 87 1014.0
20260507172807 71 17 0.0 4.0 0.00 0.01 0.00 87 1014.0
20260507172307 71 37 1.0 4.0 0.00 0.01 0.00 87 1014.2
20260507171819 71 38 1.0 5.0 0.00 0.01 0.00 87 1014.2
20260507171315 71 338 1.0 5.0 0.00 0.01 0.00 87 1014.3
20260507170812 71 299 1.0 7.0 0.00 0.01 0.00 87 1014.3
20260507170328 71 302 2.0 7.0 0.00 0.01 0.00 86 1014.3
20260507165803 71 304 1.0 6.0 0.00 0.01 0.00 85 1014.4
20260507165319 72 311 2.0 6.0 0.00 0.01 0.00 85 1014.3
20260507164815 71 304 2.0 5.0 0.00 0.01 0.00 85 1014.3
20260507164310 72 20 1.0 5.0 0.00 0.01 0.00 86 1014.2
20260507163807 71 338 2.0 5.0 0.00 0.01 0.00 86 1014.3
20260507163303 71 313 0.0 4.0 0.00 0.01 0.00 87 1014.2
20260507162819 71 313 0.0 4.0 0.00 0.01 0.00 86 1014.3
20260507162316 71 334 1.0 5.0 0.00 0.01 0.00 87 1014.2
20260507161813 71 306 1.0 5.0 0.00 0.01 0.00 87 1014.2
20260507161309 71 298 1.0 6.0 0.00 0.01 0.01 88 1014.1
20260507160805 71 286 1.0 6.0 0.00 0.01 0.01 88 1014.2
20260507160321 71 300 0.0 4.0 0.00 0.01 0.01 89 1014.3
20260507155818 71 300 0.0 6.0 0.00 0.01 0.01 88 1014.2
20260507155330 71 286 2.0 6.0 0.00 0.01 0.01 88 1014.3
20260507154805 71 304 0.0 4.0 0.00 0.01 0.01 88 1014.2
20260507154322 71 302 2.0 5.0 0.00 0.01 0.01 88 1014.3
20260507153836 71 331 0.0 6.0 0.00 0.01 0.01 88 1014.2
20260507153310 71 270 1.0 6.0 0.00 0.01 0.01 88 1014.2
20260507152808 71 305 1.0 4.0 0.00 0.01 0.01 88 1014.1
20260507152306 71 307 1.0 4.0 0.00 0.01 0.01 88 1014.1
20260507151813 72 300 1.0 6.0 0.00 0.01 0.01 88 1014.1
20260507151310 72 302 1.0 6.0 0.00 0.01 0.01 88 1014.2
20260507150824 72 298 0.0 6.0 0.00 0.01 0.01 88 1014.2
20260507150318 72 319 0.0 6.0 0.00 0.01 0.01 88 1014.2
20260507145814 72 310 2.0 6.0 0.00 0.01 0.01 87 1014.2
20260507145309 72 315 2.0 5.0 0.00 0.01 0.01 88 1014.1
20260507144805 72 292 1.0 6.0 0.00 0.01 0.01 88 1014.1
20260507144322 73 289 1.0 6.0 0.00 0.01 0.01 88 1014.0
20260507143838 73 302 1.0 4.0 0.01 0.01 0.01 88 1013.9
20260507143313 73 292 1.0 5.0 0.01 0.01 0.01 88 1013.9
20260507142808 73 280 2.0 5.0 0.01 0.01 0.01 88 1013.9
20260507142306 73 292 2.0 5.0 0.01 0.01 0.01 88 1013.8
20260507141820 73 323 0.0 4.0 0.01 0.01 0.01 89 1013.9
20260507141316 73 303 0.0 4.0 0.01 0.01 0.01 89 1013.8
20260507140813 73 286 0.0 8.0 0.01 0.01 0.01 89 1013.7
20260507140309 73 293 2.0 8.0 0.01 0.01 0.01 89 1013.7
20260507135806 73 319 1.0 6.0 0.01 0.01 0.01 88 1013.7
20260507135321 73 307 4.0 6.0 0.01 0.01 0.01 88 1013.6
20260507134819 74 312 2.0 11.0 0.01 0.01 0.01 87 1013.7
20260507134314 74 297 3.0 11.0 0.01 0.01 0.01 87 1013.7
20260507133810 74 263 2.0 11.0 0.00 0.00 0.00 86 1013.7
20260507133307 75 301 4.0 10.0 0.00 0.00 0.00 85 1013.5
20260507132823 76 308 4.0 8.0 0.00 0.00 0.00 83 1013.3
20260507132320 78 331 4.0 8.0 0.00 0.00 0.00 83 1013.2
20260507131818 78 110 2.0 6.0 0.00 0.00 0.00 85 1013.0
20260507131314 78 196 1.0 8.0 0.00 0.00 0.00 85 1013.0
20260507130809 78 194 0.0 3.0 0.00 0.00 0.00 85 1013.0
20260507130306 78 242 0.0 5.0 0.00 0.00 0.00 85 1013.1
20260507125804 78 216 0.0 5.0 0.00 0.00 0.00 85 1013.0
20260507125319 78 40 0.0 5.0 0.00 0.00 0.00 85 1013.0
20260507124816 78 195 1.0 3.0 0.00 0.00 0.00 85 1012.9
20260507124333 78 198 0.0 3.0 0.00 0.00 0.00 86 1012.8
20260507123825 78 204 0.0 3.0 0.00 0.00 0.00 86 1012.7
20260507123321 78 211 1.0 3.0 0.00 0.00 0.00 86 1012.6
20260507122818 78 151 1.0 4.0 0.00 0.00 0.00 86 1012.5
20260507122315 78 211 1.0 6.0 0.00 0.00 0.00 86 1012.6
20260507121809 78 260 1.0 6.0 0.00 0.00 0.00 86 1012.6
20260507121306 78 302 0.0 3.0 0.00 0.00 0.00 86 1012.6
20260507120803 78 209 1.0 3.0 0.00 0.00 0.00 86 1012.5
20260507120320 78 265 0.0 2.0 0.00 0.00 0.00 86 1012.4
20260507115836 78 193 1.0 2.0 0.00 0.00 0.00 86 1012.3
20260507115311 78 207 0.0 4.0 0.00 0.00 0.00 86 1012.3
20260507114807 78 207 1.0 4.0 0.00 0.00 0.00 86 1012.1
20260507114304 78 206 0.0 3.0 0.00 0.00 0.00 86 1012.0
20260507113819 78 219 0.0 4.0 0.00 0.00 0.00 86 1012.0
20260507113315 78 178 1.0 4.0 0.00 0.00 0.00 86 1011.9
20260507112813 78 193 0.0 5.0 0.00 0.00 0.00 86 1011.9
20260507112310 78 189 2.0 4.0 0.00 0.00 0.00 86 1011.8
20260507111807 78 238 1.0 4.0 0.00 0.00 0.00 86 1011.7
20260507111304 78 175 1.0 4.0 0.00 0.00 0.00 85 1011.6
20260507110820 78 200 0.0 6.0 0.00 0.00 0.00 85 1011.5
20260507110338 78 213 1.0 4.0 0.00 0.00 0.00 85 1011.4
20260507105813 78 223 1.0 6.0 0.00 0.00 0.00 85 1011.3
20260507105310 78 192 3.0 6.0 0.00 0.00 0.00 85 1011.3
20260507104807 78 261 2.0 6.0 0.00 0.00 0.00 85 1011.4
20260507104323 78 176 1.0 5.0 0.00 0.00 0.00 84 1011.4
20260507103837 78 137 0.0 5.0 0.00 0.00 0.00 84 1011.3
20260507103313 78 336 0.0 3.0 0.00 0.00 0.00 84 1011.3
20260507102810 78 190 1.0 3.0 0.00 0.00 0.00 84 1011.3
20260507102307 78 246 1.0 3.0 0.00 0.00 0.00 84 1011.3
20260507101821 78 238 1.0 5.0 0.00 0.00 0.00 84 1011.2
20260507101334 78 196 2.0 5.0 0.00 0.00 0.00 84 1011.0
20260507100810 78 182 1.0 4.0 0.00 0.00 0.00 84 1011.1
20260507100308 78 200 0.0 5.0 0.00 0.00 0.00 84 1011.2
20260507095805 78 200 0.0 5.0 0.00 0.00 0.00 84 1011.2
20260507095322 78 197 0.0 4.0 0.00 0.00 0.00 84 1011.0
20260507094820 78 166 1.0 3.0 0.00 0.00 0.00 84 1010.9
20260507094316 78 225 0.0 3.0 0.00 0.00 0.00 84 1010.9
20260507093337 78 190 0.0 3.0 0.00 0.00 0.00 84 1010.9
20260507092812 78 188 1.0 4.0 0.00 0.00 0.00 84 1011.0
20260507092307 78 220 1.0 4.0 0.00 0.00 0.00 84 1010.9
20260507091819 78 295 0.0 1.0 0.00 0.00 0.00 84 1010.9
20260507091315 78 279 0.0 5.0 0.00 0.00 0.00 84 1010.9
20260507090810 78 279 1.0 6.0 0.00 0.00 0.00 84 1010.9
20260507090306 78 228 1.0 4.0 0.00 0.00 0.00 84 1011.0
20260507085822 78 287 1.0 4.0 0.00 0.00 0.00 84 1010.9
20260507085338 78 160 0.0 3.0 0.00 0.00 0.00 84 1010.9
20260507084833 78 209 2.0 3.0 0.00 0.00 0.00 84 1010.9
20260507084309 78 166 0.0 7.0 0.00 0.00 0.00 84 1010.8
20260507083805 78 207 2.0 7.0 0.00 0.00 0.00 84 1010.8
20260507083323 78 186 1.0 5.0 0.00 0.00 0.00 84 1010.8
20260507082840 78 178 1.0 5.0 0.00 0.00 0.00 84 1010.7
20260507082313 78 42 1.0 5.0 0.00 0.00 0.00 84 1010.9
20260507081810 78 313 0.0 5.0 0.00 0.00 0.00 84 1010.9
20260507081307 78 188 2.0 5.0 0.00 0.00 0.00 84 1010.9
20260507080823 78 232 1.0 3.0 0.00 0.00 0.00 84 1010.9
20260507080320 78 275 1.0 4.0 0.00 0.00 0.00 84 1011.0
20260507075837 78 286 2.0 6.0 0.00 0.00 0.00 84 1011.1
20260507075312 78 313 2.0 6.0 0.00 0.00 0.00 84 1011.0
20260507074821 78 248 1.0 6.0 0.00 0.00 0.00 84 1011.1
20260507074317 78 236 0.0 3.0 0.00 0.00 0.00 84 1011.0
20260507073812 78 223 0.0 4.0 0.00 0.00 0.00 84 1011.2
20260507073329 78 159 0.0 4.0 0.00 0.00 0.00 84 1011.1
20260507072805 78 198 2.0 6.0 0.00 0.00 0.00 84 1011.2
20260507071815 78 259 1.0 8.0 0.00 0.00 0.00 84 1011.1
20260507071313 78 224 1.0 8.0 0.00 0.00 0.00 84 1011.1
20260507070808 78 203 3.0 8.0 0.00 0.00 0.00 84 1011.1
20260507070305 78 212 2.0 7.0 0.00 0.00 0.00 84 1011.0
20260507065819 78 216 3.0 8.0 0.00 0.00 0.00 84 1011.0
20260507065315 78 208 2.0 8.0 0.00 0.00 0.00 84 1011.1
20260507064811 78 258 2.0 6.0 0.00 0.00 0.00 84 1011.1
20260507064308 78 186 2.0 7.0 0.00 0.00 0.00 84 1011.1
20260507063824 78 213 1.0 7.0 0.00 0.00 0.00 84 1011.1
20260507063321 78 203 2.0 8.0 0.00 0.00 0.00 84 1011.1
20260507062816 78 165 0.0 7.0 0.00 0.00 0.00 84 1011.2
20260507062313 78 209 2.0 8.0 0.00 0.00 0.00 84 1011.3
20260507061829 79 111 1.0 5.0 0.00 0.00 0.00 84 1011.1
20260507061325 79 169 1.0 10.0 0.00 0.00 0.00 83 1011.1
20260507060820 79 254 2.0 10.0 0.00 0.00 0.00 83 1011.1
20260507060317 79 244 2.0 8.0 0.00 0.00 0.00 84 1011.2
20260507055814 79 211 1.0 7.0 0.00 0.00 0.00 84 1011.2
20260507055310 79 225 2.0 8.0 0.00 0.00 0.00 84 1011.2
20260507054806 79 161 2.0 9.0 0.00 0.00 0.00 83 1011.2
20260507054323 79 200 3.0 9.0 0.00 0.00 0.00 83 1011.3
20260507053839 79 158 3.0 9.0 0.00 0.00 0.00 83 1011.4
20260507053314 79 275 3.0 7.0 0.00 0.00 0.00 83 1011.2
20260507052811 79 210 3.0 7.0 0.00 0.00 0.00 83 1011.2
20260507052328 79 192 1.0 6.0 0.00 0.00 0.00 83 1011.2
20260507051844 79 198 1.0 8.0 0.00 0.00 0.00 83 1011.2
20260507051318 79 187 2.0 8.0 0.00 0.00 0.00 83 1011.2
20260507050814 79 209 2.0 7.0 0.00 0.00 0.00 83 1011.2
20260507050330 79 210 1.0 8.0 0.00 0.00 0.00 83 1011.2
20260507045820 79 186 3.0 9.0 0.00 0.00 0.00 83 1011.1
20260507045314 79 251 3.0 11.0 0.00 0.00 0.00 83 1011.0
20260507044811 79 208 3.0 12.0 0.00 0.00 0.00 83 1011.0
20260507044308 79 241 4.0 12.0 0.00 0.00 0.00 83 1011.0
20260507043804 79 260 3.0 7.0 0.00 0.00 0.00 83 1011.1
20260507043319 79 246 4.0 10.0 0.00 0.00 0.00 83 1011.1
20260507042810 79 306 4.0 16.0 0.00 0.00 0.00 83 1011.1
20260507042327 79 223 5.0 16.0 0.00 0.00 0.00 83 1011.0
20260507041320 79 178 4.0 11.0 0.00 0.00 0.00 82 1011.0
20260507040831 79 239 3.0 9.0 0.00 0.00 0.00 82 1010.9
20260507040308 79 283 3.0 9.0 0.00 0.00 0.00 82 1011.0
20260507035804 79 119 4.0 9.0 0.00 0.00 0.00 82 1011.1
20260507035321 79 167 4.0 9.0 0.00 0.00 0.00 82 1011.2
20260507034817 79 146 1.0 7.0 0.00 0.00 0.00 82 1011.2
20260507034312 79 171 2.0 7.0 0.00 0.00 0.00 83 1011.3
20260507033823 79 225 2.0 7.0 0.00 0.00 0.00 82 1011.2
20260507033318 79 231 1.0 7.0 0.00 0.00 0.00 83 1011.1
20260507032813 79 248 2.0 7.0 0.00 0.00 0.00 82 1011.1
20260507032310 79 242 3.0 7.0 0.00 0.00 0.00 82 1011.1
20260507031827 79 211 1.0 7.0 0.00 0.00 0.00 82 1011.2
20260507031322 79 211 1.0 8.0 0.00 0.00 0.00 82 1011.2
20260507030818 79 203 2.0 8.0 0.00 0.00 0.00 82 1011.3
20260507030314 79 157 3.0 7.0 0.00 0.00 0.00 82 1011.2
20260507025810 79 200 2.0 8.0 0.00 0.00 0.00 82 1011.3
20260507025307 79 63 1.0 8.0 0.00 0.00 0.00 82 1011.3
20260507024804 79 202 2.0 9.0 0.00 0.00 0.00 82 1011.2
20260507024314 79 251 4.0 9.0 0.00 0.00 0.00 82 1011.4
20260507023810 79 154 1.0 10.0 0.00 0.00 0.00 82 1011.4
20260507023305 79 259 3.0 10.0 0.00 0.00 0.00 82 1011.4
20260507022824 79 180 4.0 9.0 0.00 0.00 0.00 82 1011.4
20260507022317 80 242 3.0 10.0 0.00 0.00 0.00 82 1011.3
20260507021814 80 170 4.0 10.0 0.00 0.00 0.00 82 1011.3
20260507021310 80 197 2.0 9.0 0.00 0.00 0.00 82 1011.3
20260507020826 80 252 2.0 9.0 0.00 0.00 0.00 82 1011.3
20260507020343 80 194 2.0 9.0 0.00 0.00 0.00 82 1011.1
20260507015838 80 175 2.0 7.0 0.00 0.00 0.00 82 1011.0
20260507015312 80 257 1.0 7.0 0.00 0.00 0.00 81 1010.9
20260507014808 80 242 1.0 6.0 0.00 0.00 0.00 81 1010.8
20260507014304 80 209 1.0 7.0 0.00 0.00 0.00 81 1010.8
20260507013820 80 115 1.0 7.0 0.00 0.00 0.00 81 1010.8
20260507013317 80 236 1.0 6.0 0.00 0.00 0.00 81 1010.7
20260507012813 80 282 1.0 6.0 0.00 0.00 0.00 80 1010.7
20260507012310 80 181 1.0 5.0 0.00 0.00 0.00 80 1010.8
20260507011807 80 221 0.0 7.0 0.00 0.00 0.00 80 1010.8
20260507011323 80 165 2.0 8.0 0.00 0.00 0.00 80 1010.8
20260507010817 80 70 1.0 8.0 0.00 0.00 0.00 79 1010.8
20260507010312 80 148 2.0 8.0 0.00 0.00 0.00 79 1010.7
20260507005808 81 101 2.0 8.0 0.00 0.00 0.00 79 1010.6
20260507005325 81 213 2.0 8.0 0.00 0.00 0.00 78 1010.7
20260507004836 81 254 3.0 8.0 0.00 0.00 0.00 78 1010.5
20260507004312 81 221 3.0 7.0 0.00 0.00 0.00 78 1010.6
20260507003808 81 150 2.0 7.0 0.00 0.00 0.00 78 1010.5
20260507003304 81 169 2.0 7.0 0.00 0.00 0.00 77 1010.5
20260507002815 81 157 2.0 7.0 0.00 0.00 0.00 77 1010.5
20260507002308 81 151 2.0 7.0 0.00 0.00 0.00 77 1010.4
20260507001824 81 119 2.0 9.0 0.00 0.00 0.00 76 1010.3
20260507001320 81 209 3.0 9.0 0.00 0.00 0.00 76 1010.4
20260507000817 82 207 2.0 8.0 0.00 0.00 0.00 76 1010.4
20260507000314 82 164 1.0 8.0 0.00 0.00 0.00 75 1010.4
20260506235830 82 205 3.0 9.0 0.00 0.00 0.00 75 1010.4
20260506235317 82 143 2.0 6.0 0.00 0.00 0.00 75 1010.3
20260506234813 82 150 2.0 8.0 0.00 0.00 0.00 75 1010.3
20260506233808 82 157 3.0 9.0 0.00 0.00 0.00 74 1010.4
20260506232819 83 194 2.0 11.0 0.00 0.00 0.00 73 1010.4
20260506232316 83 150 2.0 11.0 0.00 0.00 0.00 72 1010.3
20260506231812 83 167 3.0 10.0 0.00 0.00 0.00 72 1010.2
20260506231308 84 202 3.0 10.0 0.00 0.00 0.00 71 1010.3
20260506230825 84 171 2.0 6.0 0.00 0.00 0.00 71 1010.2
20260506230321 84 173 1.0 12.0 0.00 0.00 0.00 71 1010.1
20260506225816 84 235 3.0 12.0 0.00 0.00 0.00 71 1010.2
20260506225312 84 285 1.0 9.0 0.00 0.00 0.00 71 1010.3
20260506224809 84 196 4.0 10.0 0.00 0.00 0.00 70 1010.2
20260506224325 84 252 1.0 10.0 0.00 0.00 0.00 70 1010.3
20260506223820 84 189 4.0 10.0 0.00 0.00 0.00 69 1010.3
20260506223316 84 263 2.0 13.0 0.00 0.00 0.00 69 1010.4
20260506222810 84 184 5.0 13.0 0.00 0.00 0.00 68 1010.5
20260506222306 85 209 3.0 14.0 0.00 0.00 0.00 68 1010.5
20260506221822 85 220 3.0 15.0 0.00 0.00 0.00 67 1010.5
20260506221319 85 114 2.0 15.0 0.00 0.00 0.00 67 1010.6
20260506220816 86 200 3.0 13.0 0.00 0.00 0.00 66 1010.6
20260506220313 86 355 3.0 13.0 0.00 0.00 0.00 66 1010.6
20260506215809 87 236 4.0 11.0 0.00 0.00 0.00 65 1010.6
20260506215317 87 281 1.0 10.0 0.00 0.00 0.00 65 1010.7
20260506214814 87 153 2.0 10.0 0.00 0.00 0.00 66 1010.7
20260506214311 87 199 1.0 12.0 0.00 0.00 0.00 65 1010.6
20260506213806 87 149 1.0 12.0 0.00 0.00 0.00 64 1010.7
20260506213315 87 94 2.0 11.0 0.00 0.00 0.00 65 1010.7
20260506212811 87 214 2.0 11.0 0.00 0.00 0.00 65 1010.8
20260506212307 87 195 3.0 10.0 0.00 0.00 0.00 65 1010.8
20260506211845 86 269 2.0 13.0 0.00 0.00 0.00 65 1010.8
20260506211321 87 237 4.0 13.0 0.00 0.00 0.00 64 1010.9
20260506210817 88 223 4.0 11.0 0.00 0.00 0.00 63 1010.9
20260506210312 88 213 2.0 8.0 0.00 0.00 0.00 64 1010.9
20260506205808 87 193 1.0 7.0 0.00 0.00 0.00 66 1010.9
20260506205306 87 201 2.0 17.0 0.00 0.00 0.00 66 1010.9
20260506204822 87 171 5.0 17.0 0.00 0.00 0.00 66 1010.9
20260506204320 88 252 4.0 15.0 0.00 0.00 0.00 64 1011.0
20260506203815 89 169 4.0 10.0 0.00 0.00 0.00 63 1011.1
20260506203311 89 168 1.0 8.0 0.00 0.00 0.00 64 1011.2
20260506202808 89 206 2.0 10.0 0.00 0.00 0.00 64 1011.2
20260506202323 89 160 1.0 10.0 0.00 0.00 0.00 63 1011.2
20260506201819 89 56 0.0 10.0 0.00 0.00 0.00 63 1011.4
20260506201314 88 180 2.0 7.0 0.00 0.00 0.00 65 1011.4
20260506200832 88 190 1.0 7.0 0.00 0.00 0.00 64 1011.6
20260506200346 88 157 1.0 8.0 0.00 0.00 0.00 65 1011.7
20260506195841 87 203 2.0 11.0 0.00 0.00 0.00 65 1011.8
20260506195316 87 92 4.0 11.0 0.00 0.00 0.00 66 1011.9
20260506194832 87 255 3.0 7.0 0.00 0.00 0.00 65 1012.0
20260506194307 87 146 3.0 12.0 0.00 0.00 0.00 65 1012.1
20260506193324 87 101 3.0 9.0 0.00 0.00 0.00 65 1012.1